Portada
METAR-TAF:

METAR-TAF

Aeropuertos :

Tafraoui, Argelia

Base aérea

latitud: 35-32-33N, longitud: 000-31-56W, altitud: 112 m

Observación

El informe se hizo hace 26 minutos, a las 18:00 UTC
Viento 12 kt del noreste
Temperatura 25°C
Humedad 74%
Presión 1018 hPa
Visibilidad 10 km o más
Nubes dispersas a una altura de 2600 ft

METAR: DAOL 231800Z 04012KT 9999 SCT026 25/20 Q1018

Hora: 19:26 (18:26 UTC)


TAF: falta

Observaciones y pronósticos meteorológicos de más de 4000 aeropuertos (mensajes METAR y TAF).

Los puntos amarillos y rojos representan las estaciones disponibles.

Ponga el ratón en el punto deseado para ver el nombre de la estación.

Haga clic para ver las observaciones y los pronósticos meteorológicos.

Para cambiar el mapa : haga clic en los botones verdes con una cruz de color negro para hacer un zoom, en el botón verde con un guión para alejar o en las flechas verdes para mapas adyacentes.


METAR-TAF: